Tiempo cada hora Barretos

Hoy, 13 Mayo, Jueves

Tiempo Temperatura Precipitaciones Viento Presión Humedad
00:00 +19°C° 0 mm 5 mps 714 mmHg 72%
01:00 +18°C° 0 mm 4 mps 714 mmHg 79%
02:00 +17°C° 0 mm 3 mps 714 mmHg 86%
03:00 +16°C° 0 mm 2 mps 714 mmHg 92%
04:00 +15°C° 0 mm 2 mps 714 mmHg 93%
05:00 +15°C° 0 mm 2 mps 714 mmHg 94%
06:00 +15°C° 0 mm 2 mps 714 mmHg 95%
07:00 +17°C° 0 mm 2 mps 715 mmHg 84%
08:00 +19°C° 0 mm 3 mps 716 mmHg 74%
09:00 +22°C° 0 mm 3 mps 716 mmHg 64%
10:00 +25°C° 0 mm 2 mps 716 mmHg 57%
11:00 +27°C° 0 mm 2 mps 716 mmHg 49%
12:00 +29°C° 0 mm 1 mps 716 mmHg 41%
13:00 +30°C° 0 mm 1 mps 716 mmHg 40%
14:00 +30°C° 0 mm 2 mps 715 mmHg 38%
15:00 +30°C° 0 mm 2 mps 714 mmHg 36%
16:00 +29°C° 0 mm 2 mps 714 mmHg 40%
17:00 +27°C° 0 mm 2 mps 714 mmHg 44%
18:00 +26°C° 0 mm 2 mps 714 mmHg 48%
19:00 +25°C° 0 mm 2 mps 715 mmHg 50%
20:00 +24°C° 0 mm 3 mps 715 mmHg 52%
21:00 +24°C° 0 mm 3 mps 716 mmHg 54%
22:00 +22°C° 0 mm 3 mps 716 mmHg 57%
23:00 +21°C° 0 mm 4 mps 715 mmHg 60%

Mañana, 14 Mayo, Viernes

Tiempo Temperatura Precipitaciones Viento Presión Humedad
00:00 +20°C° 0 mm 4 mps 715 mmHg 64%
01:00 +19°C° 0 mm 4 mps 715 mmHg 69%
02:00 +18°C° 0 mm 3 mps 715 mmHg 73%
03:00 +17°C° 0 mm 3 mps 714 mmHg 78%
04:00 +16°C° 0 mm 3 mps 714 mmHg 80%
05:00 +16°C° 0 mm 2 mps 715 mmHg 82%
06:00 +16°C° 0 mm 2 mps 715 mmHg 84%
07:00 +18°C° 0 mm 2 mps 715 mmHg 77%
08:00 +20°C° 0 mm 2 mps 716 mmHg 69%
09:00 +23°C° 0 mm 2 mps 716 mmHg 61%
10:00 +24°C° 0 mm 2 mps 716 mmHg 55%
11:00 +26°C° 0 mm 2 mps 716 mmHg 49%
12:00 +28°C° 0 mm 2 mps 716 mmHg 43%
13:00 +28°C° 0 mm 1 mps 715 mmHg 42%
14:00 +29°C° 0 mm 1 mps 715 mmHg 40%
15:00 +29°C° 0 mm 1 mps 714 mmHg 39%
16:00 +27°C° 0 mm 1 mps 714 mmHg 43%
17:00 +26°C° 0 mm 2 mps 714 mmHg 48%
18:00 +24°C° 0 mm 2 mps 714 mmHg 53%
19:00 +23°C° 0 mm 2 mps 714 mmHg 55%
20:00 +23°C° 0 mm 2 mps 715 mmHg 57%
21:00 +21°C° 0 mm 2 mps 715 mmHg 59%
22:00 +21°C° 0 mm 2 mps 715 mmHg 58%
23:00 +21°C° 0 mm 2 mps 714 mmHg 58%

Pasado mañana, 15 Mayo, Sábado

Tiempo Temperatura Precipitaciones Viento Presión Humedad
00:00 +21°C° 0 mm 2 mps 714 mmHg 57%
01:00 +21°C° 0 mm 2 mps 714 mmHg 61%
02:00 +20°C° 0 mm 2 mps 714 mmHg 64%
03:00 +19°C° 0 mm 2 mps 714 mmHg 67%
04:00 +19°C° 0 mm 2 mps 714 mmHg 67%
05:00 +19°C° 0 mm 2 mps 714 mmHg 68%
06:00 +19°C° 0 mm 2 mps 714 mmHg 68%
07:00 +21°C° 0 mm 1 mps 715 mmHg 63%
08:00 +22°C° 0 mm 1 mps 715 mmHg 58%
09:00 +24°C° 0 mm 1 mps 716 mmHg 53%
10:00 +25°C° 0 mm 1 mps 716 mmHg 51%
11:00 +26°C° 0 mm 1 mps 716 mmHg 48%
12:00 +26°C° 0 mm 1 mps 716 mmHg 45%
13:00 +28°C° 0 mm 1 mps 715 mmHg 42%
14:00 +29°C° 0 mm 2 mps 715 mmHg 39%
15:00 +30°C° 0 mm 3 mps 714 mmHg 36%
16:00 +28°C° 0 mm 3 mps 714 mmHg 41%
17:00 +26°C° 0 mm 3 mps 714 mmHg 46%
18:00 +24°C° 0 mm 2 mps 714 mmHg 51%
19:00 +24°C° 0 mm 2 mps 714 mmHg 53%
20:00 +23°C° 0 mm 2 mps 715 mmHg 56%
21:00 +21°C° 0 mm 2 mps 715 mmHg 59%
22:00 +21°C° 0 mm 2 mps 715 mmHg 61%
23:00 +20°C° 0 mm 2 mps 715 mmHg 64%

16 Mayo, Domingo

Tiempo Temperatura Precipitaciones Viento Presión Humedad
00:00 +21°C° 0 mm 1 mps 715 mmHg 66%
01:00 +19°C° 0 mm 2 mps 714 mmHg 70%
02:00 +18°C° 0 mm 2 mps 714 mmHg 73%
03:00 +17°C° 0 mm 2 mps 714 mmHg 77%
04:00 +17°C° 0 mm 2 mps 714 mmHg 79%
05:00 +17°C° 0 mm 2 mps 714 mmHg 82%
06:00 +16°C° 0 mm 2 mps 714 mmHg 84%
07:00 +19°C° 0 mm 2 mps 715 mmHg 74%
08:00 +21°C° 0 mm 2 mps 716 mmHg 64%
09:00 +24°C° 0 mm 2 mps 716 mmHg 54%
10:00 +27°C° 0 mm 1 mps 716 mmHg 47%
11:00 +30°C° 0 mm 1 mps 716 mmHg 40%
12:00 +30°C° 0 mm 0 mps 716 mmHg 33%
13:00 +32°C° 0 mm 1 mps 715 mmHg 32%
14:00 +32°C° 0 mm 1 mps 715 mmHg 32%
15:00 +31°C° 0 mm 2 mps 714 mmHg 32%
16:00 +30°C° 0 mm 2 mps 714 mmHg 36%
17:00 +28°C° 0 mm 2 mps 714 mmHg 40%
18:00 +26°C° 0 mm 2 mps 714 mmHg 43%
19:00 +26°C° 0 mm 2 mps 714 mmHg 46%
20:00 +25°C° 0 mm 2 mps 715 mmHg 48%
21:00 +24°C° 0 mm 2 mps 715 mmHg 51%
22:00 +23°C° 0 mm 2 mps 715 mmHg 57%
23:00 +21°C° 0 mm 2 mps 715 mmHg 62%

17 Mayo, Lunes

Tiempo Temperatura Precipitaciones Viento Presión Humedad
00:00 +19°C° 0 mm 2 mps 715 mmHg 68%
01:00 +19°C° 0 mm 2 mps 714 mmHg 69%
02:00 +18°C° 0 mm 2 mps 714 mmHg 71%
03:00 +18°C° 0 mm 2 mps 714 mmHg 73%
04:00 +18°C° 0 mm 2 mps 714 mmHg 74%
05:00 +17°C° 0 mm 2 mps 714 mmHg 75%
06:00 +17°C° 0 mm 2 mps 714 mmHg 76%
07:00 +19°C° 0 mm 2 mps 715 mmHg 66%
08:00 +23°C° 0 mm 1 mps 716 mmHg 57%
09:00 +25°C° 0 mm 1 mps 716 mmHg 48%
10:00 +28°C° 0 mm 1 mps 716 mmHg 42%
11:00 +30°C° 0 mm 1 mps 716 mmHg 35%
12:00 +33°C° 0 mm 1 mps 716 mmHg 29%
13:00 +34°C° 0 mm 2 mps 715 mmHg 27%
14:00 +34°C° 0 mm 2 mps 714 mmHg 25%
15:00 +34°C° 0 mm 3 mps 714 mmHg 23%
16:00 +31°C° 0 mm 3 mps 713 mmHg 26%
17:00 +29°C° 0 mm 2 mps 713 mmHg 30%
18:00 +26°C° 0 mm 2 mps 713 mmHg 33%
19:00 +25°C° 0 mm 2 mps 713 mmHg 36%
20:00 +24°C° 0 mm 2 mps 714 mmHg 39%
21:00 +23°C° 0 mm 2 mps 714 mmHg 42%
22:00 +23°C° 0 mm 2 mps 714 mmHg 44%
23:00 +21°C° 0 mm 2 mps 714 mmHg 46%

18 Mayo, Martes

Tiempo Temperatura Precipitaciones Viento Presión Humedad
00:00 +21°C° 0 mm 2 mps 714 mmHg 49%
01:00 +20°C° 0 mm 2 mps 714 mmHg 53%
02:00 +19°C° 0 mm 2 mps 714 mmHg 56%
03:00 +18°C° 0 mm 2 mps 713 mmHg 60%
04:00 +18°C° 0 mm 2 mps 714 mmHg 63%
05:00 +18°C° 0 mm 2 mps 714 mmHg 65%
06:00 +18°C° 0 mm 1 mps 714 mmHg 68%
07:00 +20°C° 0 mm 1 mps 715 mmHg 60%
08:00 +23°C° 0 mm 1 mps 715 mmHg 53%
09:00 +25°C° 0 mm 1 mps 716 mmHg 46%
10:00 +27°C° 0 mm 1 mps 716 mmHg 41%
11:00 +30°C° 0 mm 1 mps 716 mmHg 36%
12:00 +32°C° 0 mm 1 mps 716 mmHg 32%
13:00 +32°C° 0 mm 2 mps 715 mmHg 30%
14:00 +34°C° 0 mm 3 mps 714 mmHg 28%
15:00 +34°C° 0 mm 3 mps 714 mmHg 26%
16:00 +31°C° 0 mm 3 mps 713 mmHg 29%
17:00 +29°C° 0 mm 2 mps 713 mmHg 33%
18:00 +27°C° 0 mm 1 mps 713 mmHg 37%
19:00 +26°C° 0 mm 1 mps 714 mmHg 39%
20:00 +24°C° 0 mm 1 mps 714 mmHg 42%
21:00 +23°C° 0 mm 1 mps 714 mmHg 44%
22:00 +21°C° 0 mm 2 mps 714 mmHg 47%
23:00 +20°C° 0 mm 2 mps 714 mmHg 50%
Mostrar más

Necesitamos Su Consentimiento

Meteoprog y nuestros Proveedores de Servicios pueden almacenar y acceder a sus datos personales como cookies, identificadores de dispositivo u otras tecnologías similares de su dispositivo y procesar dichos datos para personalizar contenido y anuncios, además de ofrecer funciones de redes sociales y analizar el tráfico.

  • Almacenar y/o acceder a información en su dispositivo

    Se puede almacenar o acceder a cookies, identificadores de dispositivo u otra información de su dispositivo para los fines anteriormente indicados.

  • Anuncios y contenido personalizados, medición de anuncios y contenido, percepciones del público, y desarrollo de productos

    Los anuncios y el contenido pueden personalizarse en base a su perfil. Se pueden añadir más datos para personalizar mejor los anuncios y contenidos. Se puede medir el rendimiento de los anuncios y contenidos. Se puede obtener la percepción sobre el público que ha visto los anuncios y contenidos. Dichos datos pueden usarse para desarrollar o mejorar la experiencia del usuario, sistemas y software.

Al hacer clic en ‘Estoy De Acuerdo’ usted permitirá el uso de las cookies, identificadores de dispositivo, balizas web u otras tecnologías similares indicadas. Su configuración puede cambiarse desde el navegador de su dispositivo.

Para ciertos fines, los intereses legítimos pueden ser considerados por encima del consentimiento. Puede leer más sobre ello en nuestra Política de Privacidad y Cookies.